ASTRA 1L

Last updated on Thu Jul 03 2025 00:02:44 GMT+0000 (Coordinated Universal Time)

1 31306U 07016A 25183.57048791 .00000128 00000+0 00000+0 0 9996 2 31306 0.4189 81.8312 0002920 16.0435 47.7458 1.00270145 41484
UTC large
Height (km)
Speed (km/s)
/
Latitude / Longitude
Inclination (degrees)
Orbital Period (minutes)
Azimuth
Elevation
Range (km)
Doppler Factor

Next 0 passes for location: London (51.5072 / 0.1276)

Sorry there are no passes over London.